Monroe, WI

8:41 PM CDT on March 30, 2017 (GMT -0500)
Monroe Municipal

Weather History for KEFT - March, 2013

Change the Weather History Date:

Tuesday, March 19, 2013

  Actual Average Record
Temperature  
Mean Temperature 20 °F -  
Max Temperature 28 °F 0 °F 73 °F (2012)
Min Temperature 12 °F - 12 °F (2013)
Degree Days  
Heating Degree Days 45    
Moisture  
Dew Point 9 °F    
Average Humidity 64    
Maximum Humidity 86    
Minimum Humidity 47    
Precipitation  
Precipitation 0.00 in - - ()
Sea Level Pressure  
Sea Level Pressure 29.91 in    
Wind  
Wind Speed 24 mph (West)    
Max Wind Speed 33 mph    
Max Gust Speed 39 mph    
Visibility 8 miles    
Events Snow    
Averages and records for this station are not official NWS values.
T = Trace of Precipitation, MM = Missing Value Source: NWS Daily Summary

Daily Weather History Graph

Daily Weather History Graph

Search for Another Location

Airport or City:

Trip Planner

Search our weather history database for the weather conditions in past years. The results will help you decide how hot, cold, wet, or windy it might be!

Date:

Astronomy

Mar. 19, 2013 Rise Set
Actual Time 7:02 AM CDT 7:09 PM CDT
Civil Twilight 6:34 AM CDT 7:37 PM CDT
Nautical Twilight 6:01 AM CDT 8:10 PM CDT
Astronomical Twilight 5:28 AM CDT 8:44 PM CDT
Moon 11:46 AM CDT (3/19) 2:03 AM CDT (3/19)
Length of Visible Light 13h 03m
Length of Day
12h 06m
Waxing Crescent, 50% of the Moon is Illuminated
Mar 19
Waxing Crescent
Mar 19
First Quarter
Mar 27
Full
Apr 2
Last Quarter
Apr 10
New

Hourly Weather History & Observations

Time (CDT) Temp. Windchill Dew Point Humidity Pressure Visibility Wind Dir Wind Speed Gust Speed Precip Events Conditions
12:15 AM 17.6 °F 0.1 °F 10.4 °F 73% 29.75 in 5.0 mi West 23.0 mph 28.8 mph N/A Snow Light Snow
12:35 AM 17.6 °F 0.5 °F 12.2 °F 79% 29.75 in 4.0 mi West 21.9 mph 31.1 mph N/A Snow Light Snow
12:55 AM 17.6 °F -1.0 °F 10.4 °F 73% 29.75 in 5.0 mi West 26.5 mph 35.7 mph N/A Snow Light Snow
1:15 AM 17.6 °F -1.6 °F 8.6 °F 68% 29.75 in 5.0 mi West 28.8 mph 36.8 mph N/A   Haze
1:35 AM 17.6 °F -0.3 °F 10.4 °F 73% 29.75 in 7.0 mi West 24.2 mph 33.4 mph N/A   Overcast
1:55 AM 17.6 °F 1.7 °F 14.0 °F 86% 29.75 in 2.5 mi West 18.4 mph 26.5 mph N/A Snow Light Snow
2:15 AM 15.8 °F -3.1 °F 10.4 °F 79% 29.75 in 2.0 mi West 25.3 mph 32.2 mph N/A Snow Light Snow
2:35 AM 15.8 °F -1.9 °F 8.6 °F 73% 29.75 in 5.0 mi West 21.9 mph 32.2 mph N/A   Haze
2:55 AM 14.0 °F -3.4 °F 8.6 °F 79% 29.75 in 5.0 mi West 19.6 mph 35.7 mph N/A   Haze
3:15 AM 14.0 °F -5.1 °F 8.6 °F 79% 29.75 in 10.0 mi West 24.2 mph 33.4 mph N/A   Mostly Cloudy
3:35 AM 14.0 °F -4.7 °F 10.4 °F 86% 29.76 in 5.0 mi West 23.0 mph 28.8 mph N/A Snow Light Snow
3:55 AM 14.0 °F -5.5 °F 8.6 °F 79% 29.76 in 7.0 mi West 25.3 mph 32.2 mph N/A   Overcast
4:15 AM 14.0 °F -5.1 °F 8.6 °F 79% 29.76 in 4.0 mi West 24.2 mph 28.8 mph N/A Snow Light Snow
4:35 AM 14.0 °F -7.4 °F 8.6 °F 79% 29.76 in 5.0 mi West 32.2 mph 36.8 mph N/A   Haze
4:55 AM 14.0 °F -7.7 °F 8.6 °F 79% 29.77 in 4.0 mi West 33.4 mph 39.1 mph N/A   Haze
5:15 AM 14.0 °F -6.5 °F 8.6 °F 79% 29.78 in 4.0 mi West 28.8 mph 36.8 mph N/A Snow Light Snow
5:35 AM 14.0 °F -6.2 °F 8.6 °F 79% 29.78 in 7.0 mi West 27.6 mph 34.5 mph N/A   Overcast
5:55 AM 14.0 °F -6.5 °F 6.8 °F 73% 29.79 in 5.0 mi West 28.8 mph 36.8 mph N/A   Haze
6:15 AM 12.2 °F -5.8 °F 6.8 °F 79% 29.80 in 5.0 mi West 19.6 mph 31.1 mph N/A   Haze
6:35 AM 12.2 °F -7.9 °F 5.0 °F 73% 29.81 in 7.0 mi West 25.3 mph 32.2 mph N/A   Overcast
6:55 AM 12.2 °F -8.2 °F 5.0 °F 73% 29.82 in 7.0 mi West 26.5 mph 33.4 mph N/A   Overcast
7:15 AM 12.2 °F -7.5 °F 5.0 °F 73% 29.83 in 5.0 mi West 24.2 mph 32.2 mph N/A   Haze
7:35 AM 12.2 °F -7.9 °F 5.0 °F 73% 29.83 in 5.0 mi West 25.3 mph 32.2 mph N/A   Haze
7:55 AM 12.2 °F -7.9 °F 5.0 °F 73% 29.84 in 5.0 mi West 25.3 mph 31.1 mph N/A   Haze
8:15 AM 12.2 °F -7.9 °F 5.0 °F 73% 29.85 in 5.0 mi West 25.3 mph 36.8 mph N/A   Haze
8:35 AM 14.0 °F -5.8 °F 5.0 °F 67% 29.86 in 5.0 mi West 26.5 mph 32.2 mph N/A   Haze
8:55 AM 14.0 °F -5.8 °F 6.8 °F 73% 29.87 in 5.0 mi West 26.5 mph 34.5 mph N/A   Haze
9:15 AM 14.0 °F -4.7 °F 6.8 °F 73% 29.88 in 10.0 mi West 23.0 mph 28.8 mph N/A   Clear
9:35 AM 15.8 °F -2.7 °F 6.8 °F 68% 29.89 in 10.0 mi West 24.2 mph 29.9 mph N/A   Clear
9:55 AM 15.8 °F -2.3 °F 8.6 °F 73% 29.89 in 10.0 mi West 23.0 mph 29.9 mph N/A   Clear
10:15 AM 17.6 °F 2.2 °F 8.6 °F 68% 29.90 in 10.0 mi West 17.3 mph 31.1 mph N/A   Clear
10:35 AM 17.6 °F 0.5 °F 8.6 °F 68% 29.91 in 10.0 mi West 21.9 mph 32.2 mph N/A   Clear
10:55 AM 19.4 °F 3.2 °F 8.6 °F 63% 29.91 in 10.0 mi West 20.7 mph 28.8 mph N/A   Clear
11:15 AM 19.4 °F 3.6 °F 8.6 °F 63% 29.93 in 10.0 mi West 19.6 mph 29.9 mph N/A   Clear
11:35 AM 21.2 °F 6.8 °F 8.6 °F 58% 29.93 in 10.0 mi West 17.3 mph 28.8 mph N/A   Clear
11:55 AM 21.2 °F 4.5 °F 10.4 °F 63% 29.93 in 10.0 mi West 24.2 mph 33.4 mph N/A   Clear
12:15 PM 23.0 °F 8.0 °F 10.4 °F 59% 29.94 in 10.0 mi West 20.7 mph 29.9 mph N/A   Clear
12:35 PM 23.0 °F 7.2 °F 10.4 °F 59% 29.95 in 10.0 mi West 23.0 mph 27.6 mph N/A   Clear
12:55 PM 23.0 °F 6.6 °F 10.4 °F 59% 29.96 in 10.0 mi West 25.3 mph 33.4 mph N/A   Clear
1:15 PM 23.0 °F 6.6 °F 10.4 °F 59% 29.96 in 10.0 mi West 25.3 mph 34.5 mph N/A   Clear
1:35 PM 23.0 °F 6.3 °F 10.4 °F 59% 29.96 in 10.0 mi West 26.5 mph 33.4 mph N/A   Clear
1:55 PM 24.8 °F 9.0 °F 10.4 °F 54% 29.96 in 10.0 mi West 25.3 mph 31.1 mph N/A   Clear
2:15 PM 26.6 °F 10.6 °F 10.4 °F 51% 29.96 in 10.0 mi West 28.8 mph 32.2 mph N/A   Clear
2:35 PM 26.6 °F 10.8 °F 12.2 °F 55% 29.96 in 10.0 mi West 27.6 mph 33.4 mph N/A   Clear
2:55 PM 26.6 °F 11.1 °F 10.4 °F 51% 29.96 in 10.0 mi West 26.5 mph 33.4 mph N/A   Clear
3:15 PM 26.6 °F 10.6 °F 10.4 °F 51% 29.97 in 10.0 mi West 28.8 mph 35.7 mph N/A   Clear
3:35 PM 28.4 °F 13.3 °F 12.2 °F 51% 29.97 in 10.0 mi West 27.6 mph 33.4 mph N/A   Clear
3:55 PM 28.4 °F 14.4 °F 12.2 °F 51% 29.98 in 10.0 mi West 23.0 mph 33.4 mph N/A   Clear
4:15 PM 28.4 °F 13.8 °F 10.4 °F 47% 29.99 in 7.0 mi West 25.3 mph 38.0 mph N/A   Clear
4:35 PM 28.4 °F 13.8 °F 12.2 °F 51% 29.99 in 10.0 mi West 25.3 mph 28.8 mph N/A   Clear
4:55 PM 28.4 °F 13.3 °F 10.4 °F 47% 30.00 in 7.0 mi West 27.6 mph 35.7 mph N/A   Clear
5:15 PM 28.4 °F 14.4 °F 12.2 °F 51% 30.00 in 10.0 mi West 23.0 mph 27.6 mph N/A   Clear
5:35 PM 28.4 °F 15.4 °F 12.2 °F 51% 30.01 in 10.0 mi West 19.6 mph - N/A   Clear
5:55 PM 28.4 °F 15.1 °F 12.2 °F 51% 30.01 in 10.0 mi WSW 20.7 mph 31.1 mph N/A   Clear
6:15 PM 26.6 °F 11.4 °F 12.2 °F 55% 30.02 in 10.0 mi WSW 25.3 mph - N/A   Clear
6:35 PM 26.6 °F 11.7 °F 12.2 °F 55% 30.02 in 10.0 mi WSW 24.2 mph 31.1 mph N/A   Clear
7:15 PM 24.8 °F 9.0 °F 12.2 °F 59% 30.03 in 10.0 mi West 25.3 mph 29.9 mph N/A   Clear
7:35 PM 24.8 °F 9.0 °F 12.2 °F 59% 30.04 in 10.0 mi West 25.3 mph 28.8 mph N/A   Clear
7:55 PM 24.8 °F 10.0 °F 12.2 °F 59% 30.04 in 10.0 mi West 21.9 mph 28.8 mph N/A   Clear
8:35 PM 23.0 °F 7.6 °F 10.4 °F 59% 30.05 in 10.0 mi West 21.9 mph - N/A   Clear
8:55 PM 23.0 °F 7.6 °F 10.4 °F 59% 30.05 in 10.0 mi West 21.9 mph 32.2 mph N/A   Clear
9:15 PM 23.0 °F 6.9 °F 8.6 °F 54% 30.05 in 10.0 mi West 24.2 mph 29.9 mph N/A   Clear
9:35 PM 23.0 °F 8.0 °F 8.6 °F 54% 30.05 in 10.0 mi West 20.7 mph 27.6 mph N/A   Clear
9:55 PM 21.2 °F 5.6 °F 8.6 °F 58% 30.05 in 10.0 mi West 20.7 mph 28.8 mph N/A   Scattered Clouds
10:15 PM 21.2 °F 4.9 °F 8.6 °F 58% 30.05 in 10.0 mi West 23.0 mph 31.1 mph N/A   Clear
10:35 PM 21.2 °F 4.9 °F 8.6 °F 58% 30.04 in 10.0 mi West 23.0 mph 29.9 mph N/A   Clear
10:55 PM 21.2 °F 5.2 °F 8.6 °F 58% 30.04 in 10.0 mi West 21.9 mph 26.5 mph N/A   Clear
11:15 PM 21.2 °F 5.2 °F 6.8 °F 54% 30.04 in 10.0 mi West 21.9 mph 28.8 mph N/A   Clear
11:35 PM 21.2 °F 5.2 °F 5.0 °F 50% 30.03 in 10.0 mi West 21.9 mph 34.5 mph N/A   Clear
11:55 PM 19.4 °F 3.6 °F 6.8 °F 58% 30.04 in 10.0 mi West 19.6 mph 24.2 mph N/A   Clear